Location: Chittendens Corners
(41.2320°N, 81.4940°W)
Time: 07:12:40
(UTC+00:00)

Cosmos 44 Rocket - Pass Details

Date: 29 October 2020
Orbit: 642 x 748 km, 65.1° (Epoch: 29 November)

Event Time Altitude Azimuth Distance (km) Brightness Sun altitude
Rises 23:05:59 0° 180° (S) 2,964 6.7 -8.4°
Reaches altitude 10° 23:08:31 10° 168° (SSE) 2,071 5.8 -8.9°
Maximum altitude 23:12:27 27° 111° (ESE) 1,296 4.2 -9.6°
Enters shadow 23:16:14 11° 57° (ENE) 2,057 5.2 -10.3°
